www.pogodaiklimat.ru

Погода и климат >> Архив погоды >> Россия >> Якутия >> Оймякон


АРХИВ ПОГОДЫ в Оймяконе

Время (UTC), дата Ветер
(напр.,м/с)
 
Видим.   Явления Облачность Т
(С)
Тd
(С)
f
(%)
Тe
(С)
Тes
(С)
Комфортность P
(гПа)
Po
(гПа)
Тmin
(С)
Tmax
(С)
R
(мм)
R24
(мм)
S
(см)
03 13.09 С 2 50 км 9/4 1000 м
[Cu hum Ac trans Ci fib]
+5.9 -3.5 51 +4 +6 по сезону 1021.7 933.8
06 13.09 СВ 2 50 км 10/10 1500 м
[Sc diur, vesp]
+5.6 -3.2 53 +4 +4 прохладно 1021.4 933.5
09 13.09 С 1 50 км 8/3 1000 м
[Sc diur, vesp Ci fib]
+3.9 -3.0 61 +3 +3 по сезону 1022.1 933.6 +5.9
12 13.09 ЮЗ 1 50 км 3/0
[Ac trans Ci fib]
-3.7 -4.5 94 -6 -6 холодно 1024.9 933.8
15 13.09 штиль 0 50 км 1/0
[Ci fib]
-5.8 -6.2 97 -7 -7 прохладно 1025.3 933.4
18 13.09 ЮЗ 1 50 км 1/0
[Ci fib]
-8.1 -9.0 93 -11 -11 холодно 1025.8 933.4
21 13.09 штиль 0 50 км 1/0
[Ci fib]
-7.8 -8.8 93 -9 -8 очень
холодно
1025.4 932.8 -9.6
00 14.09 З 1 50 км 1/0
[Ci fib]
+3.3 -2.4 66 +2 +6 по сезону 1019.8 931.4
03 14.09 СЗ 3 50 км 3/3 1000 м
[Cu hum]
+7.6 -3.8 44 +5 +8 по сезону 1016.0 929.1
06 14.09 СЗ 2 50 км 4/3 1000 м
[Sc Ci fib]
+9.2 -5.4 35 +8 +10 по сезону 1013.7 927.4
09 14.09 С 2 50 км 3/3 1000 м
[Sc]
+6.2 -5.0 44 +5 +5 по сезону 1013.8 926.6 +9.5
12 14.09 З 1 50 км 5/4 1000 м
[Sc Ci fib]
-1.9 -4.5 82 -4 -4 прохладно 1016.5 926.6
15 14.09 ЮЗ 1 50 км 8/3 1000 м
[Sc Ci fib]
-1.5 -3.8 84 -4 -4 по сезону 1015.5 925.9
18 14.09 В 1 50 км 10/4 1000 м
[Sc Ci fib]
-2.2 -4.4 85 -4 -4 по сезону 1015.0 925.3
21 14.09 З 1 50 км 9/9 1000 м
[Sc]
-1.0 -3.2 85 -3 -3 по сезону 1014.5 925.2 -2.2
00 15.09 Ю 1 50 км 8/8 1000 м
[Sc]
+3.6 -4.1 57 +3 +3 по сезону 1012.1 924.4
03 15.09 СВ 2 50 км 1/1 1000 м
[Cu hum]
+9.5 -2.7 42 +8 +13 тепло 1008.2 922.5
06 15.09 СЗ 2 50 км 3/3 1000 м
[Cu hum]
+11.8 -1.7 39 +11 +13 тепло 1006.7 921.8
09 15.09 СЗ 2 50 км ясно +7.9 -2.2 49 +6 +6 по сезону 1007.6 921.5 +12.1
12 15.09 З 2 50 км ясно -1.7 -3.9 85 -6 -6 прохладно 1010.2 921.1
15 15.09 Ю 1 50 км ясно -4.3 -5.2 93 -7 -7 прохладно 1011.3 921.1
21 15.09 штиль 0 50 км 1/0
[Ci fib]
-7.4 -8.7 90 -8 -8 холодно 1012.4 921.2 -8.7
00 16.09 штиль 0 50 км ясно +3.4 -2.3 66 +3 +7 по сезону 1008.4 920.9
03 16.09 З 1 50 км ясно +9.7 -3.6 39 +10 +15 тепло 1004.4 919.2
06 16.09 СВ 1 50 км 1/0
[]
+10.9 -2.7 38 +11 +13 тепло 1002.7 917.9
09 16.09 СВ 1 50 км 1/0
[Ci fib]
+4.9 -5.0 49 +4 +4 по сезону 1004.6 917.9 +11.4
12 16.09 ЮЗ 2 50 км ясно -3.8 -6.0 85 -8 -8 холодно 1008.3 918.5
15 16.09 ЮЗ 1 50 км ясно -7.0 -7.9 93 -9 -9 холодно 1009.0 918.3
18 16.09 ЮЗ 1 50 км 1/1 1000 м
[Sc]
-8.7 -9.4 95 -11 -11 холодно 1010.1 918.5
21 16.09 штиль 0 50 км 8/1 1000 м
[Sc Ci sp]
-8.0 -9.4 90 -9 -9 холодно 1010.0 918.8 -9.2
00 17.09 штиль 0 50 км 8/0
[Ci fib]
+2.1 -4.0 64 +1 +5 по сезону 1006.1 918.4
03 17.09 СВ 1 50 км 8/0
[Ci fib]
+8.3 -2.2 48 +8 +13 тепло 1002.5 917.0
06 17.09 штиль 0 50 км 10/0
[Ci fib]
+10.1 -1.4 45 +10 +12 тепло 1001.5 916.7
09 17.09 штиль 0 50 км 10/0
[Ac trans Ci fib]
+5.4 -3.4 53 +5 +5 по сезону 1003.8 917.4 +10.5
12 17.09 СЗ 1 50 км 5/0
[Ci fib]
-2.2 -5.0 81 -4 -4 по сезону 1006.7 917.7
15 17.09 штиль 0 50 км 5/0
[Ci fib]
-4.0 -5.2 91 -5 -5 по сезону 1008.7 918.9
18 17.09 штиль 0 50 км 8/0
[Ci fib]
-3.4 -4.2 94 -5 -5 по сезону 1008.9 919.3
21 17.09 штиль 0 50 км 10/6 1000 м
[Sc Ac und]
-2.2 -2.8 96 -4 -4 по сезону 1009.1 919.9 -4.6
00 18.09 СВ 1 50 км слабый дождь 10/8 1000 м
[Cu Sc As op]
+3.6 +0.7 81 +2 +2 по сезону 1008.1 920.8
03 18.09 С 1 50 км {дождь} 9/8 1000 м
[Cu Sc Ci fib]
+7.7 +2.1 68 +7 +8 тепло 1006.1 920.2
06 18.09 В 2 50 км {дождь} 9/9 1000 м
[Cb cap]
+9.0 +1.3 58 +8 +8 по сезону 1005.6 920.2
09 18.09 штиль 0 50 км 10/9 1000 м
[Sc diur, vesp Ci fib]
+6.9 +0.6 64 +6 +6 тепло 1006.6 920.4 +9.2 0.0
12 18.09 ЮЗ 1 50 км 5/3 1000 м
[Sc Ci fib]
-0.6 -1.8 92 -3 -3 по сезону 1008.9 920.2
15 18.09 штиль 0 50 км 8/0
[Ac trans Ci fib]
-0.8 -2.0 92 -2 -2 по сезону 1009.4 920.6
18 18.09 штиль 0 50 км 6/0
[Ac trans Ci fib]
-2.4 -3.3 94 -4 -4 по сезону 1010.0 920.5
21 18.09 штиль 0 50 км 10/9 1500 м
[Sc Ci fib]
-1.2 -2.1 94 -3 -3 по сезону 1010.0 921.0 -2.6
00 19.09 С 2 50 км 10/8 1500 м
[Sc Ac trans Ci fib]
+6.6 -1.4 57 +5 +5 тепло 1006.9 920.6
03 19.09 СВ 3 50 км 10/8 1500 м
[Sc Ac trans Ci fib]
+7.7 -2.7 48 +5 +6 по сезону 1006.1 920.2
06 19.09 С 3 50 км 10/8 1500 м
[Sc Ac und]
+7.9 -2.7 47 +6 +6 по сезону 1006.0 920.1
09 19.09 С 3 50 км 10/8 1500 м
[Sc Ac und]
+6.1 -2.8 53 +3 +3 по сезону 1007.0 920.4 +8.1
12 19.09 штиль 0 50 км 10/6 1500 м
[Sc Ac und]
+4.5 -1.9 63 +4 +4 тепло 1008.2 921.1
15 19.09 штиль 0 50 км 10/6 2000 м
[Sc Ac und]
+3.2 -2.5 66 +3 +3 тепло 1008.8 921.3
18 19.09 СВ 1 50 км 10/6 1500 м
[Sc Ac und]
+2.2 -2.8 69 +1 +1 тепло 1009.6 921.7
21 19.09 З 1 50 км 10/5 1500 м
[Sc Ac und]
+1.1 -2.7 76 -1 -1 по сезону 1010.4 922.0 +1.0
00 20.09 штиль 0 50 км 10/6 1500 м
[Sc Ac und]
+4.7 -1.3 65 +4 +4 тепло 1009.9 922.7

 

Местоположение метеостанции Оймякон (Якутия, Россия): широта 63.25 долгота 143.10 высота над уровнем моря 740 м.

В архиве по умолчанию представлена погода в Оймяконе за последнюю неделю. Архивные данные за месяц целиком и за предыдущие месяцы, начиная с января 2011 года, Вы можете получить, выбрав интересующий диапазон дат из раскрывающегося списка и нажав кнопку "Ввод!".


*Определитесь, кто Вы:
робот инопланетянин человек

Внимание! Время в таблицах - всемирное. Для получения местного времени необходимо прибавить поправку, которая в Оймяконе равна 10 ч.

Смотрите также архив погоды в соседних городах и на ближайших метеорологических станциях:

Погода в Агаякане (Якутия, Россия) (71 км)
Погода в Юртах (Якутия, Россия) (110 км)
Погода в Делянкире (Якутия, Россия) (140 км)
Погода в Усть-Нере (Якутия, Россия) (142 км)
Погода в Восточной (Якутия, Россия) (175 км)
Погода в Сусумане (Магаданская область, Россия) (258 км)
Погода в Колымской (Магаданская область, Россия) (278 км)
Погода в Уеге (Хабаровский край, Россия) (282 км)
Погода в Теплом Ключе (Якутия, Россия) (322 км)
Погода в Ягодной (Магаданская область, Россия) (340 км)

Пояснения к столбцам:

Ветер - указаны скорость ветра в м/с - средняя за 10 мин, порывы в срок и между сроками (в фигурных скобках) и направление, откуда дует ветер: С - северный, СВ - северо-восточный, В - восточный, ЮВ - юго-восточный, Ю - южный, ЮЗ - юго-западный, З - западный, СЗ - северо-западный.
Видимость - горизонтальная дальность видимости в метрах или километрах. При видимости от 1 до 10 км при отсутствии осадков обычно наблюдается дымка, при ухудшении видимости до 1 км и менее - туман. В сухую погоду видимость может ухудшаться дымом, пылью или мглою.
Явления - указаны атмосферные явления, наблюдавшиеся в срок или в последний час перед сроком; фигурными скобками обозначены явления, наблюдавшиеся между сроками (за 1-3 часа до срока); квадратными скобками обозначены град или гололедные отложения с указанием их диаметра в мм.
Облачность - указаны через наклонную черту общая и нижняя облачность в баллах и высота нижней границы облаков в метрах; квадратными скобками обозначены формы облаков: Ci - перистые, Cs - перисто-слоистые, Cc - перисто-кучевые, Ac - высококучевые, As - высокослоистые, Sc - слоисто-кучевые, Ns - слоисто-дождевые, Cu - кучевые, Cb - кучево-дождевые. Подробнее классификацию облаков см. в Атласе облаков (PDF).
T - Температура воздуха - температура, измеренная на высоте 2 м над землей.
Td - Температура точки росы - температура, при понижении до которой содержащийся в воздухе водяной пар достигнет насыщения.
f - Относительная влажность воздуха - влажноcть воздуха, измеренная на высоте 2 м над землей.
Te - Эффективная температура - температура, которую ощущает одетый по сезону человек в тени. Характеристика душности погоды. При расчете учитывается влияние влажности воздуха и скорости ветра на теплоощущения человека.
Tes - Эффективная температура на солнце - температура, которую ощущает человек, с поправкой на солнечный нагрев. Характеристика знойности погоды. Зависит от высоты солнца над горизонтом, облачности и скорости ветра. Ночью, в пасмурную погоду, а также при ветре 12 м/с и более поправка равна нулю.
P - Атмосферное давление - приведенное к уровню моря атмосферное давление.
Po - Атмосферное давление - измеренное на уровне метеостанции атмосферное давление.
Tmin - Минимальная температура - минимум температуры воздуха на высоте 2 м над землей.
Tmax - Максимальная температура - максимум температуры воздуха на высоте 2 м над землей.
R - Количество осадков - Количество выпавших осадков за период времени, мм. При наведении курсора мыши на число - период времени, за который выпало указанное количество осадков.
R24 - Количество осадков - Количество выпавших осадков за 24 часа, мм.
S - Снежный покров - Высота снежного покрова, см. При наведении курсора мыши на число - состояние снежного покрова и степень покрытия местности в баллах.